Wetterdaten: Samstag, 01.09.2018
Datum Zeit Temp. A. Aussen2m Boden Feuchte A. Feuchte 2 Luftdruck Regen Wind Richtung Richtung Sonnenschein
01.09.2018 00:00 13,9 C 13,4 C 10,8 C 68 % 74 % 1021,8 hPa 0,0 l/m 3,6 km/h (1 Bft) O 100 0 min
01.09.2018 00:05 14,1 C 13,6 C 10,8 C 68 % 74 % 1021,8 hPa 0,0 l/m 4,2 km/h (1 Bft) N-NO 15 0 min
01.09.2018 00:10 14,1 C 13,7 C 10,8 C 67 % 74 % 1021,8 hPa 0,0 l/m 0,6 km/h (0 Bft) O-NO 70 0 min
01.09.2018 00:15 14,2 C 13,7 C 10,8 C 67 % 74 % 1021,8 hPa 0,0 l/m 3,0 km/h (1 Bft) N-NO 20 0 min
01.09.2018 00:20 14,2 C 13,7 C 10,8 C 67 % 74 % 1021,8 hPa 0,0 l/m 0,0 km/h (0 Bft) NO 35 0 min
01.09.2018 00:25 14,1 C 13,7 C 10,8 C 67 % 74 % 1021,8 hPa 0,0 l/m 0,0 km/h (0 Bft) SO 145 0 min
01.09.2018 00:30 13,9 C 13,7 C 10,8 C 68 % 74 % 1021,8 hPa 0,0 l/m 1,2 km/h (1 Bft) SO 130 0 min
01.09.2018 00:35 13,9 C 13,7 C 10,8 C 69 % 74 % 1021,8 hPa 0,0 l/m 3,6 km/h (1 Bft) N-NO 20 0 min
01.09.2018 00:40 14,0 C 13,7 C 10,8 C 69 % 74 % 1021,8 hPa 0,0 l/m 3,0 km/h (1 Bft) N 10 0 min
01.09.2018 00:45 14,0 C 13,7 C 10,8 C 68 % 74 % 1021,8 hPa 0,0 l/m 3,0 km/h (1 Bft) N-NO 20 0 min
01.09.2018 00:50 13,9 C 13,7 C 10,8 C 69 % 74 % 1021,8 hPa 0,0 l/m 1,2 km/h (1 Bft) N 0 0 min
01.09.2018 00:55 14,0 C 13,7 C 10,8 C 69 % 74 % 1021,8 hPa 0,0 l/m 4,8 km/h (1 Bft) N 10 0 min
01.09.2018 01:00 14,1 C 13,7 C 10,8 C 68 % 74 % 1021,8 hPa 0,0 l/m 4,8 km/h (1 Bft) N 5 0 min
01.09.2018 01:05 14,0 C 13,7 C 10,8 C 68 % 74 % 1021,8 hPa 0,0 l/m 3,6 km/h (1 Bft) N-NO 25 0 min
01.09.2018 01:10 14,0 C 13,7 C 10,8 C 69 % 74 % 1021,8 hPa 0,0 l/m 3,6 km/h (1 Bft) N-NO 20 0 min
01.09.2018 01:15 13,8 C 13,7 C 10,8 C 70 % 74 % 1021,8 hPa 0,0 l/m 1,2 km/h (1 Bft) N-NO 15 0 min
01.09.2018 01:20 13,7 C 13,7 C 10,8 C 70 % 74 % 1021,8 hPa 0,0 l/m 1,2 km/h (1 Bft) N 350 0 min
01.09.2018 01:25 13,6 C 13,7 C 10,8 C 70 % 74 % 1021,8 hPa 0,0 l/m 1,2 km/h (1 Bft) NO 35 0 min
01.09.2018 01:30 13,4 C 13,7 C 10,8 C 71 % 74 % 1021,8 hPa 0,0 l/m 0,0 km/h (0 Bft) N 0 0 min
01.09.2018 01:35 13,2 C 13,7 C 10,8 C 72 % 74 % 1021,8 hPa 0,0 l/m 0,0 km/h (0 Bft) N 10 0 min
01.09.2018 01:40 13,0 C 13,7 C 10,8 C 73 % 74 % 1022,8 hPa 0,0 l/m 0,0 km/h (0 Bft) O-SO 120 0 min
01.09.2018 01:45 12,9 C 13,7 C 10,8 C 73 % 74 % 1022,8 hPa 0,0 l/m 0,0 km/h (0 Bft) NW 320 0 min
01.09.2018 01:50 12,8 C 13,7 C 10,8 C 74 % 74 % 1022,8 hPa 0,0 l/m 0,0 km/h (0 Bft) O-NO 60 0 min
01.09.2018 01:55 12,8 C 13,7 C 10,8 C 74 % 74 % 1021,8 hPa 0,0 l/m 3,0 km/h (1 Bft) N-NO 15 0 min
01.09.2018 02:00 12,8 C 13,7 C 10,8 C 74 % 74 % 1021,8 hPa 0,0 l/m 1,2 km/h (1 Bft) N 0 0 min
01.09.2018 02:05 12,7 C 13,7 C 10,8 C 75 % 74 % 1021,8 hPa 0,0 l/m 1,2 km/h (1 Bft) N 10 0 min
01.09.2018 02:10 12,5 C 13,7 C 10,8 C 75 % 74 % 1021,8 hPa 0,0 l/m 1,2 km/h (1 Bft) NO 50 0 min
01.09.2018 02:15 12,4 C 13,7 C 10,8 C 76 % 74 % 1021,8 hPa 0,0 l/m 1,8 km/h (1 Bft) O-NO 70 0 min
01.09.2018 02:20 12,5 C 13,7 C 10,8 C 76 % 74 % 1021,8 hPa 0,0 l/m 4,8 km/h (1 Bft) N-NO 25 0 min
01.09.2018 02:25 12,6 C 13,7 C 10,8 C 76 % 74 % 1022,8 hPa 0,0 l/m 5,4 km/h (2 Bft) N-NO 20 0 min
01.09.2018 02:30 12,6 C 13,7 C 10,8 C 76 % 74 % 1022,8 hPa 0,0 l/m 3,6 km/h (1 Bft) N-NO 30 0 min
01.09.2018 02:35 12,5 C 13,7 C 10,8 C 76 % 74 % 1022,8 hPa 0,0 l/m 0,6 km/h (0 Bft) O 85 0 min
01.09.2018 02:40 12,4 C 13,7 C 10,8 C 77 % 74 % 1021,8 hPa 0,0 l/m 2,4 km/h (1 Bft) N 10 0 min
01.09.2018 02:45 12,3 C 13,7 C 10,8 C 77 % 74 % 1021,8 hPa 0,0 l/m 2,4 km/h (1 Bft) NO 35 0 min
01.09.2018 02:50 12,3 C 13,7 C 10,8 C 78 % 74 % 1021,8 hPa 0,0 l/m 4,2 km/h (1 Bft) N 0 0 min
01.09.2018 02:55 12,3 C 13,7 C 10,8 C 78 % 74 % 1021,8 hPa 0,0 l/m 3,6 km/h (1 Bft) N-NO 25 0 min
01.09.2018 03:00 12,3 C 13,7 C 10,8 C 78 % 74 % 1021,8 hPa 0,0 l/m 3,6 km/h (1 Bft) NO 45 0 min
01.09.2018 03:05 12,2 C 13,7 C 10,8 C 78 % 74 % 1021,8 hPa 0,0 l/m 3,6 km/h (1 Bft) O-NO 60 0 min
01.09.2018 03:10 12,2 C 13,7 C 10,8 C 78 % 74 % 1021,8 hPa 0,0 l/m 0,6 km/h (0 Bft) N-NO 20 0 min
01.09.2018 03:15 12,2 C 13,7 C 10,8 C 79 % 74 % 1021,8 hPa 0,0 l/m 3,0 km/h (1 Bft) N-NO 15 0 min
01.09.2018 03:20 12,2 C 13,7 C 10,8 C 79 % 74 % 1021,8 hPa 0,0 l/m 3,6 km/h (1 Bft) N-NO 30 0 min
01.09.2018 03:25 12,2 C 13,7 C 10,8 C 79 % 74 % 1022,8 hPa 0,0 l/m 3,0 km/h (1 Bft) NO 40 0 min
01.09.2018 03:30 12,2 C 13,7 C 10,8 C 79 % 74 % 1022,8 hPa 0,0 l/m 2,4 km/h (1 Bft) O-NO 65 0 min
01.09.2018 03:35 12,3 C 13,7 C 10,8 C 78 % 74 % 1022,8 hPa 0,0 l/m 4,2 km/h (1 Bft) N-NW 345 0 min
01.09.2018 03:40 12,4 C 13,7 C 10,8 C 78 % 74 % 1021,8 hPa 0,0 l/m 3,6 km/h (1 Bft) N 355 0 min
01.09.2018 03:45 12,4 C 13,7 C 10,8 C 78 % 74 % 1021,8 hPa 0,0 l/m 3,6 km/h (1 Bft) NO 35 0 min
01.09.2018 03:50 12,3 C 13,7 C 10,8 C 78 % 74 % 1021,8 hPa 0,0 l/m 2,4 km/h (1 Bft) N-NW 345 0 min
01.09.2018 03:55 12,2 C 13,7 C 10,8 C 79 % 74 % 1021,8 hPa 0,0 l/m 3,0 km/h (1 Bft) N-NW 345 0 min
01.09.2018 04:00 12,1 C 13,7 C 10,8 C 79 % 74 % 1021,8 hPa 0,0 l/m 3,6 km/h (1 Bft) N 10 0 min
01.09.2018 04:05 12,0 C 13,7 C 10,8 C 80 % 74 % 1021,8 hPa 0,0 l/m 1,8 km/h (1 Bft) N 5 0 min
01.09.2018 04:10 11,9 C 13,7 C 10,8 C 80 % 74 % 1021,8 hPa 0,0 l/m 1,8 km/h (1 Bft) N 350 0 min
01.09.2018 04:15 11,9 C 13,7 C 10,8 C 80 % 74 % 1021,8 hPa 0,0 l/m 1,2 km/h (1 Bft) O-NO 70 0 min
01.09.2018 04:20 11,7 C 13,7 C 10,8 C 81 % 74 % 1021,8 hPa 0,0 l/m 0,0 km/h (0 Bft) N 10 0 min
01.09.2018 04:25 11,7 C 13,7 C 10,8 C 81 % 74 % 1022,8 hPa 0,0 l/m 0,0 km/h (0 Bft) O-SO 110 0 min
01.09.2018 04:30 11,5 C 13,7 C 10,8 C 81 % 74 % 1022,8 hPa 0,0 l/m 0,0 km/h (0 Bft) NW 310 0 min
01.09.2018 04:35 11,4 C 13,7 C 10,8 C 81 % 74 % 1022,8 hPa 0,0 l/m 0,0 km/h (0 Bft) W 275 0 min
01.09.2018 04:40 11,3 C 13,7 C 10,8 C 81 % 74 % 1021,8 hPa 0,0 l/m 0,0 km/h (0 Bft) W-NW 300 0 min
01.09.2018 04:45 11,3 C 13,7 C 10,8 C 82 % 74 % 1021,8 hPa 0,0 l/m 0,0 km/h (0 Bft) N-NW 340 0 min
01.09.2018 04:50 11,3 C 13,7 C 10,8 C 82 % 74 % 1021,8 hPa 0,0 l/m 1,8 km/h (1 Bft) N 5 0 min
01.09.2018 04:55 11,5 C 13,7 C 10,8 C 82 % 74 % 1021,8 hPa 0,0 l/m 3,6 km/h (1 Bft) N 355 0 min
01.09.2018 05:00 11,4 C 13,7 C 10,8 C 82 % 74 % 1021,8 hPa 0,0 l/m 0,0 km/h (0 Bft) N 0 0 min
01.09.2018 05:05 11,4 C 13,7 C 10,8 C 82 % 74 % 1021,8 hPa 0,0 l/m 0,0 km/h (0 Bft) NO 40 0 min
01.09.2018 05:10 11,2 C 13,7 C 10,8 C 82 % 74 % 1021,8 hPa 0,0 l/m 0,0 km/h (0 Bft) N 10 0 min
01.09.2018 05:15 11,1 C 13,7 C 10,8 C 82 % 74 % 1021,8 hPa 0,0 l/m 0,0 km/h (0 Bft) NW 315 0 min
01.09.2018 05:20 11,0 C 13,7 C 10,8 C 82 % 74 % 1021,8 hPa 0,0 l/m 0,0 km/h (0 Bft) W-NW 285 0 min
01.09.2018 05:25 10,9 C 13,7 C 10,8 C 83 % 74 % 1021,8 hPa 0,0 l/m 0,0 km/h (0 Bft) W-SW 240 0 min
01.09.2018 05:30 10,8 C 13,7 C 10,8 C 83 % 74 % 1021,8 hPa 0,0 l/m 0,0 km/h (0 Bft) W-SW 240 0 min
01.09.2018 05:35 10,8 C 13,7 C 10,8 C 84 % 74 % 1021,8 hPa 0,0 l/m 0,0 km/h (0 Bft) SW 225 0 min
01.09.2018 05:40 10,7 C 13,7 C 10,8 C 84 % 74 % 1022,8 hPa 0,0 l/m 0,0 km/h (0 Bft) SW 225 0 min
01.09.2018 05:45 10,6 C 13,7 C 10,8 C 84 % 74 % 1022,8 hPa 0,0 l/m 0,0 km/h (0 Bft) W-NW 295 0 min
01.09.2018 05:50 10,5 C 13,7 C 10,8 C 84 % 74 % 1022,8 hPa 0,0 l/m 0,0 km/h (0 Bft) NW 320 0 min
01.09.2018 05:55 10,4 C 13,7 C 10,8 C 84 % 74 % 1022,8 hPa 0,0 l/m 0,0 km/h (0 Bft) NW 320 0 min
01.09.2018 06:00 10,3 C 13,7 C 10,8 C 84 % 74 % 1022,8 hPa 0,0 l/m 0,0 km/h (0 Bft) W-NW 300 0 min
01.09.2018 06:05 10,3 C 13,7 C 10,8 C 85 % 74 % 1022,8 hPa 0,0 l/m 0,0 km/h (0 Bft) W-SW 245 0 min
01.09.2018 06:10 10,3 C 13,7 C 10,8 C 85 % 74 % 1021,8 hPa 0,0 l/m 0,0 km/h (0 Bft) W 275 0 min
01.09.2018 06:15 10,2 C 13,7 C 10,8 C 85 % 74 % 1021,8 hPa 0,0 l/m 0,0 km/h (0 Bft) W 275 0 min
01.09.2018 06:20 10,2 C 13,7 C 10,8 C 86 % 74 % 1021,8 hPa 0,0 l/m 0,0 km/h (0 Bft) S-SO 150 0 min
01.09.2018 06:25 10,1 C 13,7 C 10,8 C 86 % 74 % 1021,8 hPa 0,0 l/m 0,0 km/h (0 Bft) S-SO 150 0 min
01.09.2018 06:30 10,0 C 13,7 C 10,8 C 86 % 74 % 1021,8 hPa 0,0 l/m 0,0 km/h (0 Bft) NW 310 0 min
01.09.2018 06:35 10,0 C 13,7 C 10,8 C 86 % 74 % 1021,8 hPa 0,0 l/m 0,0 km/h (0 Bft) N-NW 330 0 min
01.09.2018 06:40 10,1 C 13,7 C 10,8 C 87 % 74 % 1022,8 hPa 0,0 l/m 0,0 km/h (0 Bft) O 95 0 min
01.09.2018 06:45 10,0 C 13,7 C 10,8 C 87 % 74 % 1022,8 hPa 0,0 l/m 0,0 km/h (0 Bft) SW 220 0 min
01.09.2018 06:50 10,0 C 13,7 C 10,8 C 87 % 74 % 1022,8 hPa 0,0 l/m 0,0 km/h (0 Bft) SW 220 0 min
01.09.2018 06:55 9,9 C 13,7 C 10,8 C 87 % 74 % 1023,8 hPa 0,0 l/m 0,0 km/h (0 Bft) NW 320 0 min
01.09.2018 07:00 10,0 C 13,7 C 10,8 C 87 % 74 % 1023,8 hPa 0,0 l/m 0,0 km/h (0 Bft) O 95 0 min
01.09.2018 07:05 10,0 C 13,7 C 10,8 C 87 % 74 % 1023,8 hPa 0,0 l/m 0,0 km/h (0 Bft) NO 40 0 min
01.09.2018 07:10 10,0 C 13,7 C 10,8 C 87 % 74 % 1022,8 hPa 0,0 l/m 0,0 km/h (0 Bft) N-NW 345 0 min
01.09.2018 07:15 10,0 C 13,7 C 10,8 C 87 % 74 % 1022,8 hPa 0,0 l/m 0,0 km/h (0 Bft) W 270 0 min
01.09.2018 07:20 10,0 C 13,7 C 10,8 C 87 % 74 % 1022,8 hPa 0,0 l/m 0,0 km/h (0 Bft) SW 235 0 min
01.09.2018 07:25 10,0 C 13,7 C 10,8 C 87 % 74 % 1023,8 hPa 0,0 l/m 0,0 km/h (0 Bft) NW 305 0 min
01.09.2018 07:30 10,1 C 13,7 C 10,8 C 87 % 74 % 1023,8 hPa 0,0 l/m 0,0 km/h (0 Bft) NW 320 0 min
01.09.2018 07:35 10,2 C 13,7 C 10,8 C 87 % 74 % 1023,8 hPa 0,0 l/m 0,0 km/h (0 Bft) W-NW 290 0 min
01.09.2018 07:40 10,5 C 13,7 C 10,8 C 87 % 74 % 1023,8 hPa 0,0 l/m 0,0 km/h (0 Bft) NW 305 0 min
01.09.2018 07:45 10,7 C 13,7 C 10,8 C 87 % 74 % 1023,8 hPa 0,0 l/m 0,0 km/h (0 Bft) N 355 0 min
01.09.2018 07:50 10,7 C 13,7 C 10,8 C 87 % 74 % 1023,8 hPa 0,0 l/m 0,0 km/h (0 Bft) W-NW 300 0 min
01.09.2018 07:55 10,8 C 13,7 C 10,8 C 87 % 74 % 1023,8 hPa 0,0 l/m 0,0 km/h (0 Bft) NW 320 0 min
01.09.2018 08:00 10,9 C 13,7 C 10,8 C 87 % 74 % 1023,8 hPa 0,0 l/m 0,0 km/h (0 Bft) N-NW 340 0 min
01.09.2018 08:05 11,1 C 13,7 C 10,8 C 86 % 74 % 1023,8 hPa 0,0 l/m 0,0 km/h (0 Bft) N 355 0 min
01.09.2018 08:10 11,2 C 13,7 C 10,8 C 86 % 74 % 1023,8 hPa 0,0 l/m 0,0 km/h (0 Bft) N-NO 20 0 min
01.09.2018 08:15 11,4 C 13,7 C 10,8 C 86 % 74 % 1023,8 hPa 0,0 l/m 3,0 km/h (1 Bft) W-NW 300 0 min
01.09.2018 08:20 11,9 C 13,7 C 10,8 C 85 % 74 % 1023,8 hPa 0,0 l/m 2,4 km/h (1 Bft) NW 310 3 min
01.09.2018 08:25 12,2 C 13,7 C 10,8 C 84 % 74 % 1022,8 hPa 0,0 l/m 3,6 km/h (1 Bft) N-NW 345 4 min
01.09.2018 08:30 12,6 C 13,7 C 10,8 C 82 % 74 % 1022,8 hPa 0,0 l/m 4,2 km/h (1 Bft) NW 325 6 min
01.09.2018 08:35 13,0 C 13,7 C 10,8 C 80 % 74 % 1022,8 hPa 0,0 l/m 4,8 km/h (1 Bft) N 355 5 min
01.09.2018 08:40 13,3 C 13,7 C 10,8 C 79 % 74 % 1023,8 hPa 0,0 l/m 4,8 km/h (1 Bft) N-NO 15 5 min
01.09.2018 08:45 13,8 C 13,7 C 10,8 C 77 % 74 % 1023,8 hPa 0,0 l/m 5,4 km/h (2 Bft) N-NO 15 4 min
01.09.2018 08:50 14,0 C 13,7 C 10,8 C 76 % 74 % 1023,8 hPa 0,0 l/m 4,8 km/h (1 Bft) NO 35 6 min
01.09.2018 08:55 14,6 C 13,7 C 10,8 C 74 % 74 % 1022,8 hPa 0,0 l/m 2,4 km/h (1 Bft) N-NO 20 5 min
01.09.2018 09:00 14,9 C 13,7 C 10,8 C 73 % 74 % 1022,8 hPa 0,0 l/m 2,4 km/h (1 Bft) N-NO 30 5 min
01.09.2018 09:05 15,6 C 13,7 C 10,8 C 70 % 74 % 1022,7 hPa 0,0 l/m 3,6 km/h (1 Bft) N 10 5 min
01.09.2018 09:10 15,5 C 13,7 C 10,8 C 69 % 74 % 1023,7 hPa 0,0 l/m 3,6 km/h (1 Bft) O 95 5 min
01.09.2018 09:15 15,8 C 13,7 C 10,8 C 68 % 74 % 1023,7 hPa 0,0 l/m 9,1 km/h (2 Bft) N-NO 20 5 min
01.09.2018 09:20 15,7 C 13,7 C 10,8 C 67 % 74 % 1023,7 hPa 0,0 l/m 12,1 km/h (2 Bft) NO 50 5 min
01.09.2018 09:25 16,1 C 13,7 C 10,8 C 66 % 74 % 1024,7 hPa 0,0 l/m 9,1 km/h (2 Bft) N 10 6 min
01.09.2018 09:30 16,5 C 13,7 C 10,8 C 65 % 74 % 1024,7 hPa 0,0 l/m 7,3 km/h (2 Bft) N 5 0 min
01.09.2018 09:35 16,6 C 13,7 C 10,8 C 62 % 74 % 1024,7 hPa 0,0 l/m 9,1 km/h (2 Bft) O-NO 65 3 min
01.09.2018 09:40 16,8 C 13,7 C 10,8 C 61 % 74 % 1023,7 hPa 0,0 l/m 7,9 km/h (2 Bft) N-NO 20 5 min
01.09.2018 09:45 16,8 C 13,7 C 10,8 C 61 % 74 % 1023,7 hPa 0,0 l/m 6,1 km/h (2 Bft) O-SO 110 5 min
01.09.2018 09:50 16,9 C 13,7 C 10,8 C 60 % 74 % 1023,7 hPa 0,0 l/m 7,3 km/h (2 Bft) NO 40 5 min
01.09.2018 09:55 16,9 C 13,7 C 10,8 C 59 % 74 % 1023,7 hPa 0,0 l/m 12,7 km/h (3 Bft) N-NO 20 4 min
01.09.2018 10:00 16,6 C 13,7 C 10,8 C 59 % 74 % 1023,7 hPa 0,0 l/m 13,3 km/h (3 Bft) N 350 6 min
01.09.2018 10:05 16,7 C 13,7 C 10,8 C 58 % 74 % 1023,7 hPa 0,0 l/m 12,7 km/h (3 Bft) N 0 4 min
01.09.2018 10:10 16,8 C 13,7 C 10,8 C 57 % 74 % 1023,7 hPa 0,0 l/m 15,7 km/h (3 Bft) N-NO 15 6 min
01.09.2018 10:15 16,9 C 13,7 C 10,8 C 57 % 74 % 1023,7 hPa 0,0 l/m 13,9 km/h (3 Bft) N-NO 20 5 min
01.09.2018 10:20 17,0 C 13,7 C 10,8 C 56 % 74 % 1023,7 hPa 0,0 l/m 15,1 km/h (3 Bft) N 0 3 min
01.09.2018 10:25 17,5 C 13,7 C 10,8 C 55 % 74 % 1024,7 hPa 0,0 l/m 10,9 km/h (2 Bft) N 5 5 min
01.09.2018 10:30 17,7 C 13,7 C 10,8 C 54 % 74 % 1024,7 hPa 0,0 l/m 9,7 km/h (2 Bft) O 80 5 min
01.09.2018 10:35 17,7 C 13,7 C 10,8 C 54 % 74 % 1024,7 hPa 0,0 l/m 10,9 km/h (2 Bft) O 100 5 min
01.09.2018 10:40 17,6 C 13,7 C 10,8 C 54 % 74 % 1023,7 hPa 0,0 l/m 4,8 km/h (1 Bft) N-NW 340 5 min
01.09.2018 10:45 17,7 C 13,7 C 10,8 C 53 % 74 % 1023,7 hPa 0,0 l/m 9,7 km/h (2 Bft) N-NO 30 6 min
01.09.2018 10:50 17,8 C 13,7 C 10,8 C 52 % 74 % 1023,7 hPa 0,0 l/m 10,9 km/h (2 Bft) N-NW 330 5 min
01.09.2018 10:55 17,6 C 13,7 C 10,8 C 51 % 74 % 1023,7 hPa 0,0 l/m 15,1 km/h (3 Bft) O-NO 70 4 min
01.09.2018 11:00 17,9 C 13,7 C 10,8 C 52 % 74 % 1023,7 hPa 0,0 l/m 10,9 km/h (2 Bft) NW 315 3 min
01.09.2018 11:05 18,2 C 13,7 C 10,8 C 51 % 74 % 1023,7 hPa 0,0 l/m 15,7 km/h (3 Bft) N 5 2 min
01.09.2018 11:10 18,4 C 13,7 C 10,8 C 50 % 74 % 1023,7 hPa 0,0 l/m 7,9 km/h (2 Bft) N 355 2 min
01.09.2018 11:15 18,5 C 13,7 C 10,8 C 48 % 74 % 1023,7 hPa 0,0 l/m 9,7 km/h (2 Bft) N 10 0 min
01.09.2018 11:20 18,5 C 13,7 C 10,8 C 48 % 74 % 1023,7 hPa 0,0 l/m 16,3 km/h (3 Bft) N-NO 30 2 min
01.09.2018 11:25 18,8 C 13,7 C 10,8 C 47 % 74 % 1024,7 hPa 0,0 l/m 13,9 km/h (3 Bft) NO 50 1 min
01.09.2018 11:30 18,9 C 13,7 C 10,8 C 46 % 74 % 1024,7 hPa 0,0 l/m 15,1 km/h (3 Bft) N 10 2 min
01.09.2018 11:35 18,9 C 13,7 C 10,8 C 45 % 74 % 1024,7 hPa 0,0 l/m 16,3 km/h (3 Bft) N-NO 15 1 min
01.09.2018 11:40 18,7 C 13,7 C 10,8 C 45 % 74 % 1023,7 hPa 0,0 l/m 13,3 km/h (3 Bft) N-NO 15 1 min
01.09.2018 11:45 18,8 C 13,7 C 10,8 C 45 % 74 % 1023,7 hPa 0,0 l/m 16,3 km/h (3 Bft) N-NW 340 1 min
01.09.2018 11:50 18,6 C 13,7 C 10,8 C 45 % 74 % 1023,7 hPa 0,0 l/m 16,9 km/h (3 Bft) N 355 3 min
01.09.2018 11:55 18,9 C 13,7 C 10,8 C 44 % 74 % 1023,7 hPa 0,0 l/m 11,5 km/h (2 Bft) NO 35 1 min
01.09.2018 12:00 18,5 C 13,7 C 10,8 C 44 % 74 % 1023,7 hPa 0,0 l/m 18,2 km/h (3 Bft) N-NW 335 1 min
01.09.2018 12:05 18,7 C 13,7 C 10,8 C 44 % 74 % 1023,7 hPa 0,0 l/m 12,1 km/h (2 Bft) NO 55 1 min
01.09.2018 12:10 18,5 C 13,7 C 10,8 C 44 % 74 % 1024,7 hPa 0,0 l/m 6,1 km/h (2 Bft) N-NO 30 2 min
01.09.2018 12:15 18,8 C 13,7 C 10,8 C 42 % 74 % 1024,7 hPa 0,0 l/m 11,5 km/h (2 Bft) N-NW 330 2 min
01.09.2018 12:20 18,8 C 13,7 C 10,8 C 42 % 74 % 1024,7 hPa 0,0 l/m 15,7 km/h (3 Bft) W 265 0 min
01.09.2018 12:25 18,3 C 13,7 C 10,8 C 43 % 74 % 1023,7 hPa 0,0 l/m 15,1 km/h (3 Bft) NO 40 0 min
01.09.2018 12:30 18,6 C 13,7 C 10,8 C 44 % 74 % 1023,7 hPa 0,0 l/m 13,3 km/h (3 Bft) NO 50 2 min
01.09.2018 12:35 18,8 C 13,7 C 10,8 C 42 % 74 % 1023,7 hPa 0,0 l/m 12,1 km/h (2 Bft) N 5 1 min
01.09.2018 12:40 19,3 C 13,7 C 10,8 C 42 % 74 % 1024,7 hPa 0,0 l/m 9,1 km/h (2 Bft) S-SO 150 0 min
01.09.2018 12:45 19,4 C 13,7 C 10,8 C 40 % 74 % 1024,7 hPa 0,0 l/m 10,9 km/h (2 Bft) N 355 0 min
01.09.2018 12:50 19,8 C 13,7 C 10,8 C 40 % 74 % 1024,7 hPa 0,0 l/m 19,4 km/h (3 Bft) N-NW 330 0 min
01.09.2018 12:55 20,3 C 13,7 C 10,8 C 39 % 74 % 1023,7 hPa 0,0 l/m 20,6 km/h (4 Bft) N-NO 20 0 min
01.09.2018 13:00 20,6 C 13,7 C 10,8 C 37 % 74 % 1023,7 hPa 0,0 l/m 15,7 km/h (3 Bft) O 90 0 min
01.09.2018 13:05 20,7 C 13,7 C 10,8 C 37 % 74 % 1023,7 hPa 0,0 l/m 21,8 km/h (4 Bft) NW 325 0 min
01.09.2018 13:10 20,3 C 13,7 C 10,8 C 37 % 74 % 1024,7 hPa 0,0 l/m 16,3 km/h (3 Bft) N 0 2 min
01.09.2018 13:15 20,1 C 13,7 C 10,8 C 38 % 74 % 1024,7 hPa 0,0 l/m 24,2 km/h (4 Bft) N-NO 15 2 min
01.09.2018 13:20 19,8 C 13,7 C 10,8 C 38 % 74 % 1024,7 hPa 0,0 l/m 15,1 km/h (3 Bft) N 355 0 min
01.09.2018 13:25 19,8 C 13,7 C 10,8 C 39 % 74 % 1024,7 hPa 0,0 l/m 13,3 km/h (3 Bft) NO 45 0 min
01.09.2018 13:30 19,5 C 13,7 C 10,8 C 38 % 74 % 1024,7 hPa 0,0 l/m 14,5 km/h (3 Bft) NO 40 0 min
01.09.2018 13:35 19,8 C 13,7 C 10,8 C 39 % 74 % 1024,7 hPa 0,0 l/m 13,3 km/h (3 Bft) N 10 0 min
01.09.2018 13:40 20,5 C 13,7 C 10,8 C 39 % 74 % 1024,7 hPa 0,0 l/m 18,2 km/h (3 Bft) NO 50 0 min
01.09.2018 13:45 19,9 C 13,7 C 10,8 C 39 % 74 % 1024,7 hPa 0,0 l/m 15,1 km/h (3 Bft) N-NO 15 3 min
01.09.2018 13:50 19,8 C 13,7 C 10,8 C 39 % 74 % 1024,7 hPa 0,0 l/m 13,3 km/h (3 Bft) N-NO 15 0 min
01.09.2018 13:55 19,6 C 13,7 C 10,8 C 39 % 74 % 1023,7 hPa 0,0 l/m 16,3 km/h (3 Bft) N-NO 15 0 min
01.09.2018 14:00 19,5 C 13,7 C 10,8 C 39 % 74 % 1023,7 hPa 0,0 l/m 17,6 km/h (3 Bft) N 350 1 min
01.09.2018 14:05 19,6 C 13,7 C 10,8 C 39 % 74 % 1023,7 hPa 0,0 l/m 12,1 km/h (2 Bft) W-NW 300 2 min
01.09.2018 14:10 20,3 C 13,7 C 10,8 C 38 % 74 % 1022,7 hPa 0,0 l/m 16,9 km/h (3 Bft) N 355 5 min
01.09.2018 14:15 20,5 C 13,7 C 10,8 C 37 % 74 % 1022,7 hPa 0,0 l/m 11,5 km/h (2 Bft) SO 130 5 min
01.09.2018 14:20 20,5 C 13,7 C 10,8 C 36 % 74 % 1022,7 hPa 0,0 l/m 20,6 km/h (4 Bft) N-NO 20 4 min
01.09.2018 14:25 19,8 C 20,4 C 10,8 C 36 % 41 % 1023,7 hPa 0,0 l/m 21,8 km/h (4 Bft) N 10 0 min
01.09.2018 14:30 19,8 C 20,1 C 10,8 C 37 % 41 % 1023,7 hPa 0,0 l/m 10,9 km/h (2 Bft) NW 305 0 min
01.09.2018 14:35 20,0 C 20,1 C 10,8 C 37 % 42 % 1023,7 hPa 0,0 l/m 7,9 km/h (2 Bft) N-NW 340 4 min
01.09.2018 14:40 20,3 C 20,4 C 10,8 C 36 % 42 % 1023,7 hPa 0,0 l/m 18,8 km/h (3 Bft) N 5 6 min
01.09.2018 14:45 20,5 C 20,5 C 10,8 C 36 % 41 % 1023,7 hPa 0,0 l/m 19,4 km/h (3 Bft) N-NO 20 4 min
01.09.2018 14:50 21,3 C 20,7 C 10,8 C 35 % 40 % 1023,7 hPa 0,0 l/m 15,1 km/h (3 Bft) N-NO 15 5 min
01.09.2018 14:55 21,2 C 20,7 C 10,8 C 35 % 41 % 1023,7 hPa 0,0 l/m 13,3 km/h (3 Bft) N-NO 20 5 min
01.09.2018 15:00 20,6 C 20,8 C 10,8 C 36 % 41 % 1023,7 hPa 0,0 l/m 21,8 km/h (4 Bft) O-NO 65 6 min
01.09.2018 15:05 21,1 C 21,0 C 10,8 C 36 % 39 % 1023,7 hPa 0,0 l/m 18,2 km/h (3 Bft) NO 55 3 min
01.09.2018 15:10 21,1 C 20,8 C 10,8 C 35 % 39 % 1023,7 hPa 0,0 l/m 16,3 km/h (3 Bft) O 85 5 min
01.09.2018 15:15 21,4 C 20,8 C 10,8 C 35 % 40 % 1023,7 hPa 0,0 l/m 11,5 km/h (2 Bft) NW 325 7 min
01.09.2018 15:20 21,6 C 20,8 C 10,8 C 35 % 41 % 1023,7 hPa 0,0 l/m 13,9 km/h (3 Bft) S-SO 155 3 min
01.09.2018 15:25 22,1 C 21,1 C 10,8 C 35 % 43 % 1023,7 hPa 0,0 l/m 20,6 km/h (4 Bft) NW 305 5 min
01.09.2018 15:30 21,2 C 21,0 C 10,8 C 36 % 42 % 1023,7 hPa 0,0 l/m 15,7 km/h (3 Bft) N-NO 30 1 min
01.09.2018 15:35 21,3 C 20,9 C 10,8 C 35 % 41 % 1023,7 hPa 0,0 l/m 6,1 km/h (2 Bft) SO 140 4 min
01.09.2018 15:40 21,0 C 20,8 C 10,8 C 36 % 41 % 1022,7 hPa 0,0 l/m 13,3 km/h (3 Bft) W-SW 255 4 min
01.09.2018 15:45 21,3 C 20,9 C 10,8 C 36 % 41 % 1022,7 hPa 0,0 l/m 10,9 km/h (2 Bft) NW 315 4 min
01.09.2018 15:50 21,1 C 20,9 C 10,8 C 36 % 41 % 1022,7 hPa 0,0 l/m 13,3 km/h (3 Bft) N 10 2 min
01.09.2018 15:55 21,0 C 20,9 C 10,8 C 37 % 42 % 1023,7 hPa 0,0 l/m 16,3 km/h (3 Bft) NO 35 2 min
01.09.2018 16:00 20,5 C 20,9 C 10,8 C 37 % 41 % 1023,7 hPa 0,0 l/m 19,4 km/h (3 Bft) NO 40 3 min
01.09.2018 16:05 20,8 C 21,0 C 10,8 C 36 % 42 % 1023,7 hPa 0,0 l/m 16,3 km/h (3 Bft) N 10 5 min
01.09.2018 16:10 21,3 C 21,0 C 10,8 C 36 % 41 % 1022,7 hPa 0,0 l/m 13,3 km/h (3 Bft) N-NO 20 5 min
01.09.2018 16:15 21,4 C 21,0 C 10,8 C 35 % 40 % 1022,7 hPa 0,0 l/m 9,1 km/h (2 Bft) N 355 5 min
01.09.2018 16:20 21,5 C 21,2 C 10,8 C 35 % 40 % 1022,7 hPa 0,0 l/m 18,2 km/h (3 Bft) N 5 5 min
01.09.2018 16:25 21,0 C 21,4 C 10,8 C 36 % 41 % 1023,7 hPa 0,0 l/m 19,4 km/h (3 Bft) N-NO 30 1 min
01.09.2018 16:30 20,8 C 21,1 C 10,8 C 36 % 40 % 1023,7 hPa 0,0 l/m 17,6 km/h (3 Bft) SW 225 0 min
01.09.2018 16:35 20,7 C 20,9 C 10,8 C 36 % 41 % 1023,7 hPa 0,0 l/m 16,9 km/h (3 Bft) N-NO 15 0 min
01.09.2018 16:40 20,9 C 20,8 C 10,8 C 36 % 42 % 1022,7 hPa 0,0 l/m 11,5 km/h (2 Bft) O-SO 115 5 min
01.09.2018 16:45 21,4 C 21,0 C 10,8 C 35 % 41 % 1022,7 hPa 0,0 l/m 18,2 km/h (3 Bft) NO 50 5 min
01.09.2018 16:50 21,3 C 21,0 C 10,8 C 35 % 40 % 1022,7 hPa 0,0 l/m 13,3 km/h (3 Bft) NW 310 6 min
01.09.2018 16:55 21,7 C 21,2 C 10,8 C 35 % 41 % 1022,7 hPa 0,0 l/m 16,9 km/h (3 Bft) NO 35 4 min
01.09.2018 17:00 21,8 C 21,4 C 10,8 C 35 % 41 % 1022,7 hPa 0,0 l/m 12,1 km/h (2 Bft) N 355 5 min
01.09.2018 17:05 21,8 C 21,4 C 10,8 C 35 % 41 % 1022,7 hPa 0,0 l/m 24,2 km/h (4 Bft) NW 305 5 min
01.09.2018 17:10 21,2 C 21,4 C 10,8 C 36 % 41 % 1023,7 hPa 0,0 l/m 15,1 km/h (3 Bft) N 10 3 min
01.09.2018 17:15 20,8 C 21,1 C 10,8 C 36 % 40 % 1023,7 hPa 0,0 l/m 15,1 km/h (3 Bft) N-NO 20 2 min
01.09.2018 17:20 20,9 C 21,0 C 10,8 C 36 % 40 % 1023,7 hPa 0,0 l/m 16,3 km/h (3 Bft) N-NO 15 4 min
01.09.2018 17:25 20,9 C 21,1 C 10,8 C 36 % 40 % 1023,7 hPa 0,0 l/m 13,3 km/h (3 Bft) N-NW 335 6 min
01.09.2018 17:30 20,9 C 21,0 C 10,8 C 36 % 41 % 1023,7 hPa 0,0 l/m 16,9 km/h (3 Bft) N-NO 15 5 min
01.09.2018 17:35 21,3 C 21,1 C 10,8 C 36 % 41 % 1023,7 hPa 0,0 l/m 12,1 km/h (2 Bft) W-SW 250 3 min
01.09.2018 17:40 20,8 C 21,1 C 10,8 C 36 % 41 % 1022,7 hPa 0,0 l/m 20,0 km/h (4 Bft) N-NO 25 4 min
01.09.2018 17:45 21,1 C 21,0 C 10,8 C 36 % 41 % 1022,7 hPa 0,0 l/m 15,1 km/h (3 Bft) NO 55 0 min
01.09.2018 17:50 20,5 C 20,9 C 10,8 C 37 % 42 % 1022,7 hPa 0,0 l/m 15,7 km/h (3 Bft) S-SO 150 0 min
01.09.2018 17:55 20,4 C 20,7 C 10,8 C 37 % 42 % 1023,7 hPa 0,0 l/m 13,9 km/h (3 Bft) N 355 0 min
01.09.2018 18:00 20,3 C 20,6 C 10,8 C 38 % 43 % 1023,7 hPa 0,0 l/m 11,5 km/h (2 Bft) NO 55 0 min
01.09.2018 18:05 20,1 C 20,5 C 10,8 C 38 % 42 % 1023,7 hPa 0,0 l/m 15,7 km/h (3 Bft) NO 35 0 min
01.09.2018 18:10 20,3 C 20,5 C 10,8 C 38 % 43 % 1023,7 hPa 0,0 l/m 12,1 km/h (2 Bft) W-NW 300 4 min
01.09.2018 18:15 20,9 C 20,7 C 10,8 C 37 % 42 % 1023,7 hPa 0,0 l/m 15,1 km/h (3 Bft) N-NO 30 5 min
01.09.2018 18:20 21,1 C 20,8 C 10,8 C 37 % 42 % 1023,7 hPa 0,0 l/m 13,3 km/h (3 Bft) NO 50 5 min
01.09.2018 18:25 20,7 C 21,0 C 10,8 C 36 % 41 % 1022,7 hPa 0,0 l/m 15,1 km/h (3 Bft) N-NO 20 5 min
01.09.2018 18:30 20,9 C 21,0 C 10,8 C 36 % 41 % 1022,7 hPa 0,0 l/m 11,5 km/h (2 Bft) N-NO 20 6 min
01.09.2018 18:35 21,3 C 21,1 C 10,8 C 36 % 42 % 1022,7 hPa 0,0 l/m 7,9 km/h (2 Bft) N-NO 20 5 min
01.09.2018 18:40 21,0 C 21,2 C 10,8 C 36 % 41 % 1022,7 hPa 0,0 l/m 19,4 km/h (3 Bft) N-NO 20 2 min
01.09.2018 18:45 20,6 C 21,0 C 10,8 C 37 % 41 % 1022,7 hPa 0,0 l/m 11,5 km/h (2 Bft) N 10 0 min
01.09.2018 18:50 20,6 C 20,9 C 10,8 C 38 % 42 % 1022,7 hPa 0,0 l/m 13,9 km/h (3 Bft) N-NW 330 0 min
01.09.2018 18:55 20,7 C 20,8 C 10,8 C 37 % 43 % 1023,7 hPa 0,0 l/m 13,9 km/h (3 Bft) O-SO 110 0 min
01.09.2018 19:00 20,8 C 20,8 C 10,8 C 37 % 43 % 1023,7 hPa 0,0 l/m 10,9 km/h (2 Bft) NW 305 0 min
01.09.2018 19:05 20,8 C 20,8 C 10,8 C 38 % 43 % 1023,7 hPa 0,0 l/m 8,5 km/h (2 Bft) N 355 0 min
01.09.2018 19:10 20,8 C 20,8 C 10,8 C 38 % 44 % 1023,7 hPa 0,0 l/m 6,1 km/h (2 Bft) N-NO 20 0 min
01.09.2018 19:15 20,6 C 20,9 C 10,8 C 38 % 44 % 1023,7 hPa 0,0 l/m 9,7 km/h (2 Bft) N-NW 345 0 min
01.09.2018 19:20 20,5 C 20,8 C 10,8 C 39 % 45 % 1023,7 hPa 0,0 l/m 8,5 km/h (2 Bft) N-NO 15 0 min
01.09.2018 19:25 20,5 C 20,8 C 10,8 C 39 % 44 % 1022,7 hPa 0,0 l/m 7,3 km/h (2 Bft) O-NO 75 0 min
01.09.2018 19:30 20,4 C 20,6 C 10,8 C 38 % 44 % 1022,7 hPa 0,0 l/m 10,9 km/h (2 Bft) N 0 0 min
01.09.2018 19:35 20,4 C 20,4 C 10,8 C 38 % 44 % 1022,7 hPa 0,0 l/m 5,4 km/h (2 Bft) O-NO 60 0 min
01.09.2018 19:40 20,1 C 20,2 C 10,8 C 39 % 45 % 1023,7 hPa 0,0 l/m 7,3 km/h (2 Bft) N-NO 25 0 min
01.09.2018 19:45 19,8 C 20,1 C 10,8 C 40 % 45 % 1023,7 hPa 0,0 l/m 8,5 km/h (2 Bft) N 5 0 min
01.09.2018 19:50 19,6 C 20,0 C 10,8 C 40 % 46 % 1023,7 hPa 0,0 l/m 8,5 km/h (2 Bft) O-NO 60 0 min
01.09.2018 19:55 19,4 C 19,8 C 10,8 C 41 % 47 % 1023,7 hPa 0,0 l/m 9,7 km/h (2 Bft) N-NO 15 0 min
01.09.2018 20:00 19,2 C 19,7 C 10,8 C 42 % 47 % 1023,7 hPa 0,0 l/m 13,3 km/h (3 Bft) N-NO 15 0 min
01.09.2018 20:05 19,1 C 19,6 C 10,8 C 42 % 48 % 1023,7 hPa 0,0 l/m 7,3 km/h (2 Bft) N 355 0 min
01.09.2018 20:10 18,9 C 19,4 C 10,8 C 43 % 49 % 1023,7 hPa 0,0 l/m 9,7 km/h (2 Bft) N 0 0 min
01.09.2018 20:15 18,9 C 19,3 C 10,8 C 43 % 49 % 1023,7 hPa 0,0 l/m 7,9 km/h (2 Bft) N-NO 30 0 min
01.09.2018 20:20 18,7 C 19,2 C 10,8 C 44 % 50 % 1023,7 hPa 0,0 l/m 11,5 km/h (2 Bft) N 350 0 min
01.09.2018 20:25 18,6 C 19,0 C 10,8 C 44 % 51 % 1023,7 hPa 0,0 l/m 8,5 km/h (2 Bft) NO 45 0 min
01.09.2018 20:30 18,4 C 18,8 C 10,8 C 45 % 51 % 1023,7 hPa 0,0 l/m 9,1 km/h (2 Bft) N 0 0 min
01.09.2018 20:35 18,3 C 18,7 C 10,8 C 46 % 52 % 1023,7 hPa 0,0 l/m 7,9 km/h (2 Bft) N-NO 15 0 min
01.09.2018 20:40 18,2 C 18,6 C 10,8 C 46 % 52 % 1023,7 hPa 0,0 l/m 7,3 km/h (2 Bft) N-NO 20 0 min
01.09.2018 20:45 18,2 C 18,5 C 10,8 C 46 % 52 % 1023,7 hPa 0,0 l/m 7,3 km/h (2 Bft) N-NO 15 0 min
01.09.2018 20:50 18,1 C 18,4 C 10,8 C 46 % 52 % 1023,7 hPa 0,0 l/m 9,7 km/h (2 Bft) N 355 0 min
01.09.2018 20:55 18,1 C 18,3 C 10,8 C 46 % 53 % 1023,7 hPa 0,0 l/m 10,9 km/h (2 Bft) N 0 0 min
01.09.2018 21:00 18,1 C 18,3 C 10,8 C 46 % 53 % 1023,7 hPa 0,0 l/m 9,1 km/h (2 Bft) N-NO 15 0 min
01.09.2018 21:05 18,0 C 18,2 C 10,8 C 47 % 53 % 1023,7 hPa 0,0 l/m 6,1 km/h (2 Bft) N-NO 20 0 min
01.09.2018 21:10 17,9 C 18,1 C 10,8 C 47 % 54 % 1022,7 hPa 0,0 l/m 8,5 km/h (2 Bft) N-NO 25 0 min
01.09.2018 21:15 17,9 C 18,1 C 10,8 C 47 % 54 % 1022,7 hPa 0,0 l/m 8,5 km/h (2 Bft) N-NO 25 0 min
01.09.2018 21:20 17,8 C 18,0 C 10,8 C 48 % 55 % 1022,7 hPa 0,0 l/m 7,3 km/h (2 Bft) NO 55 0 min
01.09.2018 21:25 17,4 C 17,8 C 10,8 C 49 % 56 % 1024,7 hPa 0,0 l/m 3,6 km/h (1 Bft) N 0 0 min
01.09.2018 21:30 17,2 C 17,7 C 10,8 C 50 % 57 % 1024,7 hPa 0,0 l/m 3,6 km/h (1 Bft) N-NO 20 0 min
01.09.2018 21:35 17,0 C 17,4 C 10,8 C 51 % 57 % 1024,7 hPa 0,0 l/m 4,8 km/h (1 Bft) N-NO 15 0 min
01.09.2018 21:40 17,0 C 17,4 C 10,8 C 51 % 57 % 1023,7 hPa 0,0 l/m 4,8 km/h (1 Bft) NO 40 0 min
01.09.2018 21:45 17,1 C 17,3 C 10,8 C 51 % 57 % 1023,7 hPa 0,0 l/m 7,3 km/h (2 Bft) N-NW 345 0 min
01.09.2018 21:50 17,2 C 17,3 C 10,8 C 51 % 57 % 1023,7 hPa 0,0 l/m 6,7 km/h (2 Bft) N 10 0 min
01.09.2018 21:55 17,1 C 17,2 C 10,8 C 51 % 58 % 1023,7 hPa 0,0 l/m 7,9 km/h (2 Bft) N-NO 20 0 min
01.09.2018 22:00 17,2 C 17,1 C 10,8 C 51 % 58 % 1023,7 hPa 0,0 l/m 8,5 km/h (2 Bft) NO 40 0 min
01.09.2018 22:05 17,0 C 17,1 C 10,8 C 51 % 59 % 1023,7 hPa 0,0 l/m 7,9 km/h (2 Bft) N 350 0 min
01.09.2018 22:10 16,9 C 17,0 C 10,8 C 52 % 59 % 1024,7 hPa 0,0 l/m 5,4 km/h (2 Bft) N-NW 345 0 min
01.09.2018 22:15 16,6 C 16,9 C 10,8 C 53 % 59 % 1024,7 hPa 0,0 l/m 1,2 km/h (1 Bft) N 350 0 min
01.09.2018 22:20 16,4 C 16,6 C 10,8 C 54 % 61 % 1024,7 hPa 0,0 l/m 4,8 km/h (1 Bft) NW 325 0 min
01.09.2018 22:25 16,2 C 16,6 C 10,8 C 55 % 61 % 1023,7 hPa 0,0 l/m 2,4 km/h (1 Bft) W-NW 300 0 min
01.09.2018 22:30 16,1 C 16,4 C 10,8 C 55 % 61 % 1023,7 hPa 0,0 l/m 3,0 km/h (1 Bft) N-NW 335 0 min
01.09.2018 22:35 15,9 C 16,3 C 10,8 C 56 % 61 % 1023,7 hPa 0,0 l/m 2,4 km/h (1 Bft) N 5 0 min
01.09.2018 22:40 15,9 C 16,0 C 10,8 C 56 % 62 % 1023,7 hPa 0,0 l/m 3,0 km/h (1 Bft) N-NO 15 0 min
01.09.2018 22:45 15,9 C 15,9 C 10,8 C 57 % 63 % 1023,7 hPa 0,0 l/m 3,0 km/h (1 Bft) N-NW 335 0 min
01.09.2018 22:50 15,8 C 15,9 C 10,8 C 57 % 63 % 1023,7 hPa 0,0 l/m 1,8 km/h (1 Bft) O-NO 65 0 min
01.09.2018 22:55 15,8 C 15,8 C 10,8 C 57 % 64 % 1023,7 hPa 0,0 l/m 4,2 km/h (1 Bft) N-NO 25 0 min
01.09.2018 23:00 15,7 C 15,8 C 10,8 C 58 % 64 % 1023,7 hPa 0,0 l/m 3,0 km/h (1 Bft) N 350 0 min
01.09.2018 23:05 15,6 C 15,8 C 10,8 C 58 % 64 % 1023,7 hPa 0,0 l/m 3,6 km/h (1 Bft) N 350 0 min
01.09.2018 23:10 15,5 C 15,7 C 10,8 C 59 % 64 % 1023,7 hPa 0,0 l/m 3,0 km/h (1 Bft) N 350 0 min
01.09.2018 23:15 15,4 C 15,7 C 10,8 C 59 % 65 % 1023,8 hPa 0,0 l/m 1,8 km/h (1 Bft) W-NW 300 0 min
01.09.2018 23:20 15,3 C 15,6 C 10,8 C 60 % 65 % 1023,8 hPa 0,0 l/m 2,4 km/h (1 Bft) N-NO 25 0 min
01.09.2018 23:25 15,4 C 15,6 C 10,8 C 60 % 65 % 1024,8 hPa 0,0 l/m 4,8 km/h (1 Bft) N-NO 30 0 min
01.09.2018 23:30 15,4 C 15,5 C 10,8 C 60 % 65 % 1024,8 hPa 0,0 l/m 5,4 km/h (2 Bft) NO 55 0 min
01.09.2018 23:35 15,5 C 15,5 C 10,8 C 60 % 66 % 1024,8 hPa 0,0 l/m 7,3 km/h (2 Bft) NO 35 0 min
01.09.2018 23:40 15,6 C 15,5 C 10,8 C 60 % 66 % 1023,7 hPa 0,0 l/m 8,5 km/h (2 Bft) N-NO 25 0 min
01.09.2018 23:45 15,6 C 15,6 C 10,8 C 60 % 66 % 1023,7 hPa 0,0 l/m 7,3 km/h (2 Bft) N-NO 25 0 min
01.09.2018 23:50 15,7 C 15,6 C 10,8 C 60 % 66 % 1023,7 hPa 0,0 l/m 9,7 km/h (2 Bft) N-NW 345 0 min
01.09.2018 23:55 15,6 C 15,6 C 10,8 C 60 % 66 % 1023,7 hPa 0,0 l/m 6,1 km/h (2 Bft) N-NO 30 0 min
_ Min-Zeit 06:55 00:00 00:00 14:50 15:05 00:15 - 00:20 - - -
Minimum _ 9,9 C 13,4 C 10,8 C 35 % 39 % 1021,8 hPa - 0,0 km/h (0 Bft) - - -
_ Max-Zeit 15:25 16:25 00:00 06:40 00:00 23:25 00:00 13:15 - - 15:15
Maximum _ 22,1 C 21,4 C 10,8 C 87 % 74 % 1024,8 hPa 0,0 l/m 24,2 km/h
N-NO (4 Bft)
- - 7 min
Durchschnitt _ 16,3 C 15,9 C 10,8 C 58 % 64 % 1023,2 hPa #0,0 l/m 7,7 km/h (2 Bft) N-NO - #6:25 h